GW3211 Weather Reports


time (UTC)temp
C
wind
direction
speed
KPH
gust
KPH
rain 1hr
cm
rain 24hr
cm
rain mn
cm
humidity
%
barometer
mb
20260505035414 11 307 0.0 3.2 0.00 0.00 0.00 92 1013.1
20260505034914 11 47 0.0 3.2 0.00 0.00 0.00 92 1013.2
20260505034343 11 357 0.0 3.2 0.00 0.00 0.00 92 1013.1
20260505033813 11 81 0.0 3.2 0.00 0.00 0.00 92 1012.9
20260505033314 11 45 0.0 3.2 0.00 0.00 0.00 91 1013.4
20260505032742 11 118 0.0 1.6 0.00 0.00 0.00 91 1013.1
20260505032213 12 139 0.0 1.6 0.00 0.00 0.00 90 1013.3
20260505031712 12 133 0.0 1.6 0.00 0.00 0.00 90 1013.1
20260505031144 12 42 0.0 3.2 0.00 0.00 0.00 88 1013.2
20260505030612 12 125 0.0 3.2 0.00 0.00 0.00 88 1013.2
20260505030336 12 27 0.0 3.2 0.00 0.00 0.00 86 1013.2
20260505025806 12 61 0.0 3.2 0.00 0.00 0.00 85 1013.4
20260505025012 12 52 1.6 1.6 0.00 0.00 0.00 84 1013.3
20260505024511 13 36 0.0 0.0 0.00 0.00 0.00 83 1013.4
20260505023941 13 85 0.0 3.2 0.00 0.00 0.00 82 1013.1
20260505023410 13 47 0.0 3.2 0.00 0.00 0.00 80 1013.1
20260505022911 13 33 1.6 3.2 0.00 0.00 0.00 79 1013.3
20260505022343 14 125 0.0 3.2 0.00 0.00 0.00 77 1013.0
20260505021812 15 126 0.0 3.2 0.00 0.00 0.00 75 1013.4
20260505021310 15 72 0.0 4.8 0.00 0.00 0.00 73 1013.1
20260505020753 16 162 3.2 4.8 0.00 0.00 0.00 72 1013.3
20260505020431 15 248 0.0 3.2 0.00 0.00 0.00 73 1012.9
20260505015710 15 98 0.0 3.2 0.00 0.00 0.00 73 1013.1
20260505015401 15 61 0.0 3.2 0.00 0.00 0.00 72 1013.2
20260505014611 15 105 0.0 3.2 0.00 0.00 0.00 72 1013.0
20260505014109 15 122 0.0 3.2 0.00 0.00 0.00 71 1012.9
20260505013540 15 92 0.0 3.2 0.00 0.00 0.00 74 1013.0
20260505013022 15 156 0.0 3.2 0.00 0.00 0.00 75 1012.9
20260505012522 15 143 0.0 3.2 0.00 0.00 0.00 77 1013.0
20260505011939 15 107 1.6 3.2 0.00 0.00 0.00 77 1012.8
20260505011409 15 134 0.0 3.2 0.00 0.00 0.00 77 1012.7
20260505010908 15 89 0.0 3.2 0.00 0.00 0.00 75 1012.5
20260505010338 15 112 3.2 3.2 0.00 0.00 0.00 75 1012.6
20260505005808 16 121 0.0 3.2 0.00 0.00 0.00 76 1012.5
20260505005308 16 319 0.0 3.2 0.00 0.00 0.00 75 1012.5
20260505004739 16 132 0.0 3.2 0.00 0.00 0.00 76 1012.5
20260505004208 16 53 1.6 6.4 0.00 0.00 0.00 75 1012.6
20260505003706 16 129 0.0 6.4 0.00 0.00 0.00 74 1012.4
20260505003137 16 149 0.0 4.8 0.00 0.00 0.00 74 1012.2
20260505002608 16 157 0.0 3.2 0.00 0.00 0.00 74 1012.4
20260505002109 16 147 1.6 3.2 0.00 0.00 0.00 74 1012.5
20260505001537 16 111 0.0 3.2 0.00 0.00 0.00 73 1012.3
20260505001240 16 127 0.0 3.2 0.00 0.00 0.00 72 1012.6
20260505000506 17 165 0.0 3.2 0.00 0.00 0.00 71 1012.3
20260504235936 17 26 0.0 3.2 0.00 0.00 0.00 69 1012.5
20260504235405 17 81 0.0 3.2 0.00 0.00 0.00 68 1012.4
20260504234906 18 109 1.6 4.8 0.00 0.00 0.00 66 1012.5
20260504234552 18 10 0.0 4.8 0.00 0.00 0.00 64 1012.4
20260504233806 18 134 0.0 4.8 0.00 0.00 0.00 63 1012.5
20260504233306 19 254 0.0 4.8 0.00 0.00 0.00 61 1012.3
20260504232735 19 135 0.0 4.8 0.00 0.00 0.00 60 1012.0
20260504232204 19 222 0.0 4.8 0.00 0.00 0.00 60 1012.0
20260504231705 20 142 0.0 11.3 0.00 0.00 0.00 57 1012.3
20260504231400 20 248 0.0 11.3 0.00 0.00 0.00 56 1012.5
20260504230635 20 156 1.6 9.7 0.00 0.00 0.00 55 1012.3
20260504230105 20 173 0.0 9.7 0.00 0.00 0.00 55 1012.2
20260504225534 20 202 6.4 8.0 0.00 0.00 0.00 53 1012.4
20260504225033 20 191 3.2 17.7 0.00 0.00 0.00 52 1012.0
20260504224730 20 177 8.0 17.7 0.00 0.00 0.00 51 1012.1
20260504223935 20 246 3.2 12.9 0.00 0.00 0.00 51 1012.2
20260504223658 20 205 6.4 19.3 0.00 0.00 0.00 50 1012.2
20260504222900 21 232 12.9 20.9 0.00 0.00 0.00 49 1012.3
20260504222332 21 189 11.3 25.7 0.00 0.00 0.00 47 1012.2
20260504221833 21 120 0.0 25.7 0.00 0.00 0.00 46 1012.2
20260504221303 21 244 4.8 25.7 0.00 0.00 0.00 45 1012.2
20260504220734 21 176 9.7 20.9 0.00 0.00 0.00 45 1012.4
20260504220457 21 190 4.8 22.5 0.00 0.00 0.00 47 1012.2
20260504215702 21 185 4.8 24.1 0.00 0.00 0.00 47 1012.3
20260504215131 21 204 9.7 24.1 0.00 0.00 0.00 46 1012.3
20260504214633 22 166 4.8 17.7 0.00 0.00 0.00 45 1012.3
20260504214102 21 219 11.3 24.1 0.00 0.00 0.00 46 1012.3
20260504213531 21 198 14.5 24.1 0.00 0.00 0.00 46 1012.4
20260504213032 21 210 11.3 24.1 0.00 0.00 0.00 46 1012.4
20260504211930 21 326 3.2 25.7 0.00 0.00 0.00 45 1012.6
20260504211430 21 256 6.4 25.7 0.00 0.00 0.00 44 1012.5
20260504210901 22 241 6.4 19.3 0.00 0.00 0.00 44 1012.5
20260504210330 22 244 3.2 19.3 0.00 0.00 0.00 43 1012.4
20260504205832 22 151 3.2 19.3 0.00 0.00 0.00 45 1012.2
20260504205301 22 216 4.8 19.3 0.00 0.00 0.00 44 1012.2
20260504204731 22 177 4.8 22.5 0.00 0.00 0.00 43 1012.3
20260504204229 22 242 8.0 22.5 0.00 0.00 0.00 42 1012.2
20260504203659 23 248 3.2 25.7 0.00 0.00 0.00 43 1012.3
20260504203129 24 346 3.2 25.7 0.00 0.00 0.00 41 1012.2
20260504202628 24 152 8.0 20.9 0.00 0.00 0.00 40 1012.2
20260504202100 23 269 14.5 20.9 0.00 0.00 0.00 35 1012.4
20260504201529 24 175 14.5 19.3 0.00 0.00 0.00 36 1012.4
20260504201035 24 228 12.9 14.5 0.00 0.00 0.00 36 1012.5
20260504200458 23 229 9.7 25.7 0.00 0.00 0.00 37 1012.7
20260504195928 23 234 20.9 25.7 0.00 0.00 0.00 36 1012.8
20260504195429 24 194 17.7 22.5 0.00 0.00 0.00 35 1012.6
20260504195119 24 305 3.2 17.7 0.00 0.00 0.00 34 1012.7
20260504194548 23 167 6.4 19.3 0.00 0.00 0.00 36 1012.8
20260504193828 23 247 12.9 19.3 0.00 0.00 0.00 36 1012.9
20260504193258 23 253 8.0 38.6 0.00 0.00 0.00 36 1012.9
20260504192727 23 209 9.7 38.6 0.00 0.00 0.00 36 1013.1
20260504192228 22 217 19.3 22.5 0.00 0.00 0.00 37 1013.2
20260504191658 24 318 4.8 19.3 0.00 0.00 0.00 36 1013.3
20260504191127 23 241 12.9 19.3 0.00 0.00 0.00 37 1013.5
20260504190627 23 246 0.0 11.3 0.00 0.00 0.00 37 1013.5
20260504190104 23 205 6.4 22.5 0.00 0.00 0.00 40 1013.5
20260504185527 23 59 0.0 22.5 0.00 0.00 0.00 40 1013.4
20260504185029 23 200 3.2 22.5 0.00 0.00 0.00 39 1013.6
20260504184457 23 273 8.0 16.1 0.00 0.00 0.00 36 1013.8
20260504184201 23 243 11.3 20.9 0.00 0.00 0.00 37 1013.9
20260504183426 23 185 6.4 20.9 0.00 0.00 0.00 36 1013.9
20260504182855 22 194 8.0 27.4 0.00 0.00 0.00 36 1013.8
20260504182325 22 230 11.3 27.4 0.00 0.00 0.00 39 1013.9
20260504181825 23 248 0.0 25.7 0.00 0.00 0.00 35 1014.3
20260504181255 22 215 12.9 16.1 0.00 0.00 0.00 38 1014.4
20260504180726 22 267 3.2 24.1 0.00 0.00 0.00 36 1014.4
20260504180226 22 242 11.3 24.1 0.00 0.00 0.00 40 1014.4
20260504175655 22 352 3.2 29.0 0.00 0.00 0.00 35 1014.4
20260504175125 22 352 4.8 29.0 0.00 0.00 0.00 38 1014.4
20260504174624 22 239 4.8 20.9 0.00 0.00 0.00 36 1014.4
20260504174054 22 346 3.2 20.9 0.00 0.00 0.00 36 1014.4
20260504173554 22 282 11.3 22.5 0.00 0.00 0.00 36 1014.7
20260504173026 22 304 11.3 22.5 0.00 0.00 0.00 37 1015.0
20260504172453 21 232 12.9 22.5 0.00 0.00 0.00 36 1014.8
20260504171954 22 298 0.0 24.1 0.00 0.00 0.00 38 1014.8
20260504171423 21 226 9.7 24.1 0.00 0.00 0.00 37 1014.8
20260504171112 21 222 4.8 19.3 0.00 0.00 0.00 36 1014.8
20260504170353 21 251 3.2 19.3 0.00 0.00 0.00 36 1015.1
20260504151149 20 236 6.4 9.7 0.00 0.00 0.00 40 1016.3
20260504150621 19 187 3.2 19.3 0.00 0.00 0.00 40 1016.4
20260504141248 16 196 4.8 11.3 0.00 0.00 0.00 50 1016.9
20260504140748 16 238 8.0 14.5 0.00 0.00 0.00 50 1016.6
20260504140232 16 214 9.7 17.7 0.00 0.00 0.00 50 1016.8
20260504130346 13 218 9.7 20.9 0.00 0.00 0.00 59 1017.4
20260504110612 10 223 3.2 9.7 0.00 0.00 0.00 70 1018.0
20260504110116 10 185 1.6 9.7 0.00 0.00 0.00 71 1018.0
20260504100211 11 231 3.2 17.7 0.00 0.00 0.00 72 1018.0
20260504081537 11 215 3.2 8.0 0.00 0.00 0.00 69 1017.9
20260504081227 11 232 3.2 6.4 0.00 0.00 0.00 69 1018.0
20260504080506 11 212 3.2 12.9 0.00 0.00 0.00 70 1018.0
20260504070117 10 146 6.4 6.4 0.00 0.00 0.00 72 1018.5
20260504060233 8 196 0.0 3.2 0.00 0.00 0.00 75 1018.2
20260504050332 5 196 1.6 3.2 0.00 0.00 0.00 89 1018.2
20260504045830 5 81 0.0 3.2 0.00 0.00 0.00 88 1018.3
20260504045300 5 188 0.0 3.2 0.00 0.00 0.00 89 1018.3
20260504044950 5 70 0.0 3.2 0.00 0.00 0.00 90 1018.4
20260504044232 4 107 1.6 3.2 0.00 0.00 0.00 91 1018.2
20260504043920 4 48 0.0 3.2 0.00 0.00 0.00 91 1018.1
20260504043130 4 75 0.0 3.2 0.00 0.00 0.00 90 1018.2
20260504042629 4 57 0.0 3.2 0.00 0.00 0.00 90 1018.4
20260504042059 4 69 1.6 3.2 0.00 0.00 0.00 91 1018.4
20260504041530 4 211 1.6 3.2 0.00 0.00 0.00 91 1018.4
20260504041309 4 54 0.0 3.2 0.00 0.00 0.00 92 1018.1
20260504040458 4 64 1.6 3.2 0.00 0.00 0.00 93 1018.3
20260504035929 3 50 1.6 3.2 0.00 0.00 0.00 94 1018.2